www.pogodaiklimat.ru

Погода и климат >> Архив погоды >> Мали >> Сан


ПОГОДА в Сане

  • Прогноз погоды в Сане
  • Монитор погоды в Сане

АРХИВ ПОГОДЫ в Сане

Время (UTC), дата Ветер
(напр.,м/с)
 
Видим.   Явления Облачность Т
(С)
Тd
(С)
f
(%)
Тe
(С)
Тes
(С)
Комфортность P
(гПа)
Po
(гПа)
Тmin
(С)
Tmax
(С)
R
(мм)
R24
(мм)
S
(см)
12 10.08 Ю 2 10 км 3/3 900 м
[Sc]
+32.5 +24.2 62 +45 +60 опасность
перегрева
1014.1 982.4
15 10.08 Ю 2 10 км 4/4 900 м
[Sc Ac lent]
+34.5 +24.0 54 +46 +54 опасность
перегрева
1011.5 979.9
18 10.08 Ю 2 10 км 4/3 900 м
[Sc diur, vesp Ac lent Ci sp]
+32.7 +23.4 58 +43 +44 опасность
перегрева
1011.0 979.3 +34.5
21 10.08 штиль 0 10 км 4/0
[Ac lent Ci sp]
+30.5 +24.2 69 +42 +42 опасность
перегрева
1013.0 981.4
00 11.08 штиль 0 10 км 4/0
[Ci sp]
+28.5 +24.3 78 +40 +40 очень
душно
1012.5 980.9
03 11.08 штиль 0 10 км зарница 5/1 900 м
[Cb calv Ac lent Ci sp]
+27.5 +23.9 81 +38 +38 очень
душно
1012.5 981.0
06 11.08 штиль 0 10 км слаб. ливневой дождь, в посл. час гроза 9/1 900 м
[Sc Ac As]
+22.5 +21.8 96 +30 +30 очень
душно
1013.2 981.3 +21.5 7
09 11.08 штиль 0 10 км {дождь} 9/1 900 м
[Sc Ac As]
+24.8 +22.2 85 +32 +37 очень
душно
1014.2 982.3
12 11.08 ЮЗ 2 10 км {дождь} 4/1 900 м
[Sc Ac lent Ci sp]
+30.0 +23.6 69 +41 +57 опасность
перегрева
1012.4 980.7 0.2
15 11.08 ЮЗ 2 10 км 6/3 900 м
[Sc Ac lent Ci sp]
+33.0 +23.5 58 +44 +52 опасность
перегрева
1010.6 979.1
18 11.08 ЮЗ 2 10 км 6/4 900 м
[Sc Ac lent Ci sp]
+31.0 +23.3 64 +42 +42 опасность
перегрева
1010.3 978.4 +34.2 0.2
21 11.08 штиль 0 10 км зарница 4/1 1200 м
[Cb calv Ci sp]
+28.8 +24.3 77 +40 +40 очень
душно
1012.1 980.2
00 12.08 штиль 0 10 км зарница 3/3 1200 м
[Cb calv]
+27.6 +24.8 85 +39 +39 очень
душно
1012.1 980.4
03 12.08 штиль 0 10 км 3/0
[Ci sp]
+27.0 +24.9 88 +39 +39 очень
душно
1010.5 978.9
06 12.08 штиль 0 10 км 3/0
[Ac lent Ci sp]
+26.0 +24.3 90 +36 +36 очень
душно
1011.4 979.7 +25.4 0.2
09 12.08 ЮЗ 2 10 км 5/1 900 м
[Sc Ac lent Ci sp]
+29.2 +24.7 77 +42 +48 опасность
перегрева
1012.7 981.0
12 12.08 ЮЗ 2 10 км 6/5 900 м
[Sc Ac lent Ci sp]
+32.0 +24.4 64 +44 +54 опасность
перегрева
1011.9 980.3
15 12.08 ЮЗ 2 10 км 6/5 900 м
[Sc Ac lent Ci sp]
+34.0 +22.9 52 +44 +50 опасность
перегрева
1009.2 977.7
18 12.08 ЮЗ 2 10 км 3/1 900 м
[Sc Ac lent Ci sp]
+33.0 +23.9 59 +45 +45 опасность
перегрева
1008.7 977.1 +34.6
21 12.08 штиль 0 10 км 3/0
[Ci sp]
+30.6 +24.9 72 +44 +44 опасность
перегрева
1010.5 978.9
00 13.08 штиль 0 10 км 3/0
[Ac lent Ci sp]
+29.3 +24.7 76 +42 +42 опасность
перегрева
1010.3 978.8
03 13.08 штиль 0 10 км 3/0
[Ac lent Ci sp]
+28.0 +25.4 86 +41 +41 опасность
перегрева
1009.0 977.6
06 13.08 штиль 0 10 км 3/0
[Ci sp]
+26.7 +24.7 89 +38 +38 очень
душно
1009.9 978.3 +26.3
09 13.08 ЮЗ 2 10 км 3/0
[Ci sp]
+30.0 +24.4 72 +42 +51 опасность
перегрева
1011.3 979.7
12 13.08 ЮЗ 2 10 км 3/0
[Ci sp]
+34.2 +23.2 53 +45 +65 опасность
перегрева
1009.7 978.3
15 13.08 ЮЗ 2 10 км 5/4 900 м
[Sc Ci sp]
+35.5 +21.9 45 +44 +51 опасность
перегрева
1007.3 976.0
18 13.08 штиль 0 10 км 6/1 900 м
[Sc Ac lent Ci sp]
+34.5 +21.5 47 +42 +43 опасность
перегрева
1007.0 975.6 +35.2
21 13.08 штиль 0 10 км зарница 6/1 1200 м
[Cb calv Ac lent Ci sp]
+31.0 +22.4 60 +40 +40 очень
душно
1009.6 978.1
00 14.08 ЮЗ 2 10 км 6/0
[Ac lent Ci sp]
+29.5 +23.8 71 +40 +40 очень
душно
1009.2 977.9
03 14.08 штиль 0 10 км 5/0
[Ac lent Ci sp]
+28.4 +23.6 75 +39 +39 очень
душно
1008.6 977.3
06 14.08 штиль 0 10 км 8/0
[Ac lent Ci sp]
+27.4 +24.3 83 +38 +38 очень
душно
1009.5 978.1 +26.7
09 14.08 Ю 2 10 км 5/0
[Ac lent Ci sp]
+31.0 +24.4 68 +43 +49 опасность
перегрева
1012.1 980.6
12 14.08 Ю 2 10 км 8/1 900 м
[Sc Ac lent Ci sp]
+32.5 +24.9 64 +46 +58 опасность
перегрева
1011.9 980.4
15 14.08 Ю 2 10 км 6/5 900 м
[Sc Ac lent Ci sp]
+30.0 +22.8 65 +40 +46 очень
душно
1009.7 978.1
18 14.08 СЗ 2 10 км гроза, ливневой дождь 8/1 900 м
[Cb cap Ac As]
+29.0 +24.8 78 +41 +42 опасность
перегрева
1010.7 978.9 +35.5 0.6
21 14.08 штиль 0 10 км {гроза, дождь} 8/1 900 м
[Sc Ac As]
+22.6 +24.3 100 +31 +31 очень
душно
1012.0 980.3
00 15.08 штиль 0 10 км {гроза, дождь} 6/0
[Ci sp]
+26.0 +24.6 92 +37 +37 очень
душно
1012.6 980.9 0.3
03 15.08 штиль 0 10 км 4/0
[Ci sp]
+25.5 +24.8 96 +36 +36 очень
душно
1011.7 979.9
06 15.08 штиль 0 10 км 4/0
[Ci sp]
+25.0 +23.6 92 +34 +34 очень
душно
1012.5 980.6 +24.5 0.9
09 15.08 штиль 0 10 км 6/0
[Ci sp]
+29.0 +24.2 75 +40 +52 опасность
солнечного
удара
1013.9 982.0
12 15.08 ЮЗ 2 10 км 9/4 900 м
[Sc Ci sp]
+32.3 +24.2 62 +44 +55 опасность
перегрева
1012.6 980.9
15 15.08 ЮЗ 2 10 км 8/5 900 м
[Sc Ci sp]
+34.0 +24.2 57 +46 +52 опасность
перегрева
1010.6 979.0
18 15.08 ЮЗ 2 10 км 8/5 900 м
[Sc Ci sp]
+31.3 +24.1 66 +43 +44 опасность
перегрева
1010.3 978.6 +34.6
21 15.08 ЮЗ 2 10 км 6/0
[Ac lent Ci sp]
+28.5 +23.7 75 +39 +39 очень
душно
1011.9 980.2
00 16.08 штиль 0 10 км 8/0
[Ci sp]
+27.0 +23.1 79 +36 +36 очень
душно
1012.3 980.6
03 16.08 штиль 0 10 км зарница 9/3 900 м
[Cb calv Ac lent Ci sp]
+26.6 +24.0 86 +37 +37 очень
душно
1011.6 980.0
06 16.08 штиль 0 10 км {гроза} 9/1 900 м
[Sc Ac As]
+24.1 +22.5 91 +32 +32 очень
душно
1011.1 979.3 +23.5
09 16.08 ЮЗ 2 10 км 8/0
[Ac lent Ci sp]
+27.0 +23.4 81 +37 +41 очень
душно
1011.1 979.3
12 16.08 ЮЗ 2 10 км 8/4 900 м
[Sc Ac lent Ci sp]
+30.7 +24.4 69 +43 +52 опасность
перегрева
1012.3 980.6
15 16.08 ЮЗ 2 10 км 5/3 900 м
[Sc Ac lent Ci sp]
+32.2 +24.2 63 +44 +52 опасность
перегрева
1009.4 977.8
18 16.08 штиль 0 10 км 5/3 900 м
[Sc Ac lent Ci sp]
+32.2 +24.5 64 +45 +45 опасность
перегрева
1008.9 977.2 +33.5
21 16.08 штиль 0 10 км зарница 8/1 900 м
[Cb calv Ac lent Ci sp]
+29.3 +24.7 76 +42 +42 опасность
перегрева
1011.1 979.3
00 17.08 ЮЗ 2 10 км 8/0
[Ac lent Ci sp]
+28.2 +24.7 81 +40 +40 очень
душно
1011.7 980.0
03 17.08 штиль 0 10 км 8/0
[Ac lent Ci sp]
+26.5 +23.6 84 +36 +36 очень
душно
1010.3 978.7
06 17.08 штиль 0 10 км 8/0
[Ac lent Ci sp]
+26.6 +23.9 85 +37 +37 очень
душно
1010.5 978.9 +25.6
09 17.08 ЮЗ 2 10 км 8/3 900 м
[Sc Ac lent Ci sp]
+29.0 +24.8 78 +41 +46 опасность
перегрева
1012.1 980.4

 

Местоположение метеостанции Сан (Мали): широта 13.33 долгота -4.83 высота над уровнем моря 284 м.

В архиве по умолчанию представлена погода в Сане за последнюю неделю. Архивные данные за месяц целиком и за предыдущие месяцы, начиная с января 2011 года, Вы можете получить, выбрав интересующий диапазон дат из раскрывающегося списка и нажав кнопку "Ввод!".


*Определитесь, кто Вы:
робот инопланетянин человек

Внимание! Время в таблицах - всемирное. Для получения местного времени необходимо прибавить поправку, которая равна 0 ч.

Смотрите также архив погоды в соседних городах и на ближайших метеорологических станциях:

Погода в Кутиале (Мали) (126 км)
Погода в Сегу (Мали) (143 км)
Погода в Мопти (Мали) (154 км)
Погода в Дедугу (Буркина-Фасо) (175 км)
Погода в Сикасо (Мали) (239 км)
Погода в Бобо-Диуласо (Буркина-Фасо) (247 км)
Погода в Вахигуе (Буркина-Фасо) (262 км)
Погода в Боромо (Буркина-Фасо) (271 км)
Погода в Наре (Мали) (334 км)
Погода в Бамако (Мали) (350 км)

Пояснения к столбцам:

Ветер - указаны скорость ветра в м/с - средняя за 10 мин, порывы в срок и между сроками (в фигурных скобках) и направление, откуда дует ветер: С - северный, СВ - северо-восточный, В - восточный, ЮВ - юго-восточный, Ю - южный, ЮЗ - юго-западный, З - западный, СЗ - северо-западный.
Видимость - горизонтальная дальность видимости в метрах или километрах. При видимости от 1 до 10 км при отсутствии осадков обычно наблюдается дымка, при ухудшении видимости до 1 км и менее - туман. В сухую погоду видимость может ухудшаться дымом, пылью или мглою.
Явления - указаны атмосферные явления, наблюдавшиеся в срок или в последний час перед сроком; фигурными скобками обозначены явления, наблюдавшиеся между сроками (за 1-3 часа до срока); квадратными скобками обозначены град или гололедные отложения с указанием их диаметра в мм.
Облачность - указаны через наклонную черту общая и нижняя облачность в баллах и высота нижней границы облаков в метрах; квадратными скобками обозначены формы облаков: Ci - перистые, Cs - перисто-слоистые, Cc - перисто-кучевые, Ac - высококучевые, As - высокослоистые, Sc - слоисто-кучевые, Ns - слоисто-дождевые, Cu - кучевые, Cb - кучево-дождевые. Подробнее классификацию облаков см. в Атласе облаков (PDF).
T - Температура воздуха - температура, измеренная на высоте 2 м над землей.
Td - Температура точки росы - температура, при понижении до которой содержащийся в воздухе водяной пар достигнет насыщения.
f - Относительная влажность воздуха - влажноcть воздуха, измеренная на высоте 2 м над землей.
Te - Эффективная температура - температура, которую ощущает одетый по сезону человек в тени. Характеристика душности погоды. При расчете учитывается влияние влажности воздуха и скорости ветра на теплоощущения человека.
Tes - Эффективная температура на солнце - температура, которую ощущает человек, с поправкой на солнечный нагрев. Характеристика знойности погоды. Зависит от высоты солнца над горизонтом, облачности и скорости ветра. Ночью, в пасмурную погоду, а также при ветре 12 м/с и более поправка равна нулю.
P - Атмосферное давление - приведенное к уровню моря атмосферное давление.
Po - Атмосферное давление - измеренное на уровне метеостанции атмосферное давление.
Tmin - Минимальная температура - минимум температуры воздуха на высоте 2 м над землей.
Tmax - Максимальная температура - максимум температуры воздуха на высоте 2 м над землей.
R - Количество осадков - Количество выпавших осадков за период времени, мм. При наведении курсора мыши на число - период времени, за который выпало указанное количество осадков.
R24 - Количество осадков - Количество выпавших осадков за 24 часа, мм.
S - Снежный покров - Высота снежного покрова, см. При наведении курсора мыши на число - состояние снежного покрова и степень покрытия местности в баллах.